Regional Weather Roundup
Issued by NWS

Home | Current Version | Previous Version | Text Only | Print | Product List | Glossary On
Versions: 1 2 3 4 5 6 7 8 9 10 11 12 13 14 15 16 17 18 19 20 21 22 23 24 25 26 27 28 29 30 31 32 33 34 35 36 37 38 39 40 41 42 43 44 45 46 47 48 49
000
ASUS45 KCYS 020310
RWRWY

WYOMING REGIONAL WEATHER ROUNDUP
NATIONAL WEATHER SERVICE CHEYENNE WY
900 PM MDT WED OCT 01 2014

NOTE:  "FAIR" INDICATES FEW OR NO CLOUDS BELOW 12,000 FEET
WITH NO SIGNIFICANT WEATHER AND/OR OBSTRUCTIONS TO VISIBILITY.

WYZ001-020400-
YELLOWSTONE NATIONAL PARK

CITY           SKY/WX    TMP DP  RH WIND       PRES   REMARKS
LK YELLOWSTONE   N/A     30  28  92 CALM      30.16R
W YELLOWSTONE  NOT AVBL

$$
WYZ002>013-054>058-071-098>099-020400-
NORTHERN WYOMING

CITY           SKY/WX    TMP DP  RH WIND       PRES   REMARKS
JACKSON        CLOUDY    39  34  81 S6        30.15R WCI  35
CODY           PTCLDY    43  37  81 S9        30.04R
GREYBULL       CLOUDY    50  39  66 W6        30.02R
WORLAND        PTCLDY    42  37  82 SW7       30.04R
SHERIDAN       PTCLDY    38  32  79 SW8       30.01R WCI  32
BUFFALO        PTCLDY    39  33  79 SW6       30.04R WCI  35
GILLETTE       PTCLDY    44  39  82 W9        30.01R
HULETT         FAIR      43  36  75 SW6       30.00
NEWCASTLE      FAIR      45  37  76 CALM      30.02

$$
WYZ014>020-022>026-101>103-020400-
CENTRAL WYOMING

CITY           SKY/WX    TMP DP  RH WIND       PRES   REMARKS
BIG PINEY      CLEAR     33  26  75 NW8       30.16R WCI  26
PINEDALE       PTCLDY    34  28  80 W15       30.16R WCI  24
DUBOIS         FAIR      36  27  69 NW14G22   30.12R WCI  27
LANDER         PTCLDY    37  34  89 W6        30.09R WCI  32
RIVERTON       CLEAR     38  35  89 W7        30.10R WCI  33
CASPER         MOCLDY    39  36  89 SW5       30.07R
DOUGLAS        PTCLDY    40  38  93 W7        30.06R

$$
WYZ021-027>030-104>119-020400-
SOUTHERN WYOMING

CITY           SKY/WX    TMP DP  RH WIND       PRES   REMARKS
EVANSTON       CLOUDY    36  31  82 W7        30.21R WCI  30
KEMMERER       PTCLDY    34  30  86 W7        30.20R WCI  28
FORT BRIDGER   FAIR      37  32  81 NW9       30.22R WCI  31
ROCK SPRINGS   LGT RAIN  37  32  82 SW12      30.15R WCI  29
DIXON          MOCLDY    38  36  91 CALM      30.16R
RAWLINS        CLOUDY    37  33  85 NW7       30.11R WCI  32
SARATOGA       RAIN      36  34  93 W5        30.12R WCI  32
LARAMIE        PTCLDY    36  30  79 SW3       30.05R
CHEYENNE       PTCLDY    39  37  92 N6        30.05R WCI  35
TORRINGTON     MOCLDY    45  42  89 N7        30.01R
PINE BLUFFS    FAIR      36  36 100 NW6       30.03R WCI  31

$$



USA.gov is the U.S. government's official web portal to all federal, state and local government web resources and services.